This is the latest recevied weather packets stored in our database for station/object AC2JK-WX. If no packets are shown the sender has not sent any weather packets the latest 1 day(s).
| Time | Temp. | Humidity | Pressure | Rain* | Wind** | Luminosity | Snow |
|---|---|---|---|---|---|---|---|
| 1778017029 | 11.11° C | 93% | 1009 hPa | 2.79 mm | 1.79 m/s, 245° | - | - |
| 1778016729 | 11.11° C | 94% | 1009 hPa | 2.54 mm | 0 m/s | - | - |
| 1778016430 | 11.11° C | 94% | 1009 hPa | 2.29 mm | 0.45 m/s, 245° | - | - |
| 1778016129 | 11.11° C | 94% | 1008 hPa | 2.03 mm | 0.89 m/s, 245° | - | - |
| 1778015829 | 11.67° C | 94% | 1009 hPa | 1.52 mm | 2.24 m/s, 245° | - | - |
| 1778015532 | 11.67° C | 93% | 1008 hPa | 1.27 mm | 1.34 m/s, 245° | - | - |
| 1778015232 | 11.11° C | 93% | 1008 hPa | 0.76 mm | 0.89 m/s, 245° | - | - |
| 1778014930 | 11.67° C | 92% | 1008 hPa | 0.76 mm | 0.89 m/s, 245° | - | - |
| 1778014629 | 11.67° C | 92% | 1008 hPa | 0.51 mm | 1.79 m/s, 245° | - | - |
| 1778014329 | 11.67° C | 91% | 1008 hPa | 0.25 mm | 1.34 m/s, 245° | - | - |
| 1778014029 | 11.67° C | 89% | 1008 hPa | 0.25 mm | 0.89 m/s, 245° | - | - |
| 1778013730 | 12.22° C | 88% | 1008 hPa | 0 mm | 1.79 m/s, 245° | - | - |
| 1778013429 | 12.22° C | 86% | 1008 hPa | 0 mm | 0.45 m/s, 245° | - | - |
| 1778013130 | 12.78° C | 85% | 1007 hPa | 0 mm | 1.34 m/s, 245° | - | - |
| 1778012829 | 12.78° C | 84% | 1007 hPa | 0 mm | 0.89 m/s, 245° | - | - |
| 1778012530 | 12.78° C | 84% | 1007 hPa | 0 mm | 1.34 m/s, 245° | - | - |
| 1778012229 | 12.78° C | 84% | 1007 hPa | 0 mm | 0.89 m/s, 245° | - | - |
| 1778011930 | 12.78° C | 85% | 1007 hPa | 0 mm | 2.24 m/s, 245° | - | - |
| 1778011630 | 12.22° C | 85% | 1007 hPa | 0 mm | 0.89 m/s, 245° | - | - |
| 1778011330 | 12.22° C | 85% | 1007 hPa | 0 mm | 1.34 m/s, 245° | - | - |
| 1778011029 | 12.22° C | 85% | 1007 hPa | 0 mm | 3.13 m/s, 245° | - | - |
| 1778010731 | 12.22° C | 83% | 1007 hPa | 0 mm | 3.58 m/s, 245° | - | - |
| 1778010430 | 12.78° C | 81% | 1007 hPa | 0 mm | 1.79 m/s, 245° | - | - |
| 1778010129 | 13.89° C | 77% | 1007 hPa | 0 mm | 1.79 m/s, 245° | - | - |
| 1778009830 | 13.89° C | 76% | 1007 hPa | 0 mm | 2.24 m/s, 245° | - | - |
* Rain latest hour (hover to see other rain measurements)
** Current wind speed in m/s (hover to see current wind gust speed)